www.pogodaiklimat.ru
ПОГОДА в Кумлинге
Время
(UTC), дата
13 9.10
14 9.10
15 9.10
16 9.10
17 9.10
18 9.10
19 9.10
20 9.10
21 9.10
22 9.10
23 9.10
00 10.10
01 10.10
02 10.10
03 10.10
04 10.10
05 10.10
06 10.10
07 10.10
08 10.10
09 10.10
10 10.10
11 10.10
12 10.10
13 10.10
14 10.10
15 10.10
16 10.10
17 10.10
18 10.10
19 10.10
20 10.10
21 10.10
22 10.10
23 10.10
00 11.10
01 11.10
02 11.10
03 11.10
04 11.10
05 11.10
06 11.10
07 11.10
08 11.10
09 11.10
10 11.10
11 11.10
12 11.10
13 11.10
14 11.10
15 11.10
16 11.10
17 11.10
18 11.10
19 11.10
20 11.10
21 11.10
22 11.10
23 11.10
00 12.10
01 12.10
02 12.10
03 12.10
04 12.10
05 12.10
06 12.10
07 12.10
08 12.10
09 12.10
10 12.10
11 12.10
12 12.10
13 12.10
14 12.10
15 12.10
16 12.10
17 12.10
18 12.10
19 12.10
20 12.10
21 12.10
22 12.10
23 12.10
00 13.10
01 13.10
02 13.10
03 13.10
04 13.10
05 13.10
06 13.10
07 13.10
08 13.10
09 13.10
10 13.10
11 13.10
12 13.10
13 13.10
14 13.10
15 13.10
16 13.10
17 13.10
18 13.10
19 13.10
20 13.10
21 13.10
22 13.10
23 13.10
00 14.10
01 14.10
02 14.10
03 14.10
04 14.10
05 14.10
06 14.10
07 14.10
08 14.10
09 14.10
10 14.10
11 14.10
12 14.10
13 14.10
14 14.10
15 14.10
16 14.10
17 14.10
18 14.10
19 14.10
20 14.10
21 14.10
22 14.10
23 14.10
00 15.10
01 15.10
02 15.10
03 15.10
04 15.10
05 15.10
06 15.10
07 15.10
08 15.10
09 15.10
10 15.10
11 15.10
12 15.10
13 15.10
14 15.10
15 15.10
16 15.10
17 15.10
18 15.10
19 15.10
20 15.10
21 15.10
22 15.10
23 15.10
00 16.10
01 16.10
02 16.10
03 16.10
04 16.10
05 16.10
06 16.10
07 16.10
08 16.10
09 16.10
10 16.10
11 16.10
Ветер
(напр.,м/с)
Видим. Явления Облачность Т
(С)
Тd
(С)
f
(%)
Тe
(С)
Тes
(С)
Комфортность P
(гПа)
Po
(гПа)
Тmin
(С)
Tmax
(С)
R
(мм)
R24
(мм)
S
(см)
В 1-2
{3}
50 км 10/0 2000 м
[]
+7.9 +3.7 75 +7 +8 тепло 1001.2 998.2
В 2-2
{2}
50 км 10/0 2000 м
[]
+7.7 +4.0 77 +6 +6 тепло 1001.4 998.4
В 2-2
{2}
50 км 10/0 2000 м
[]
+7.1 +4.6 84 +5 +5 тепло 1001.5 998.5
В 2-2
{3}
50 км 10/0 2000 м
[]
+6.9 +5.0 88 +5 +5 тепло 1001.6 998.7
В 3-3
{3}
50 км 10/0 2000 м
[]
+6.8 +4.6 86 +4 +4 по сезону 1001.6 998.7
В 2-3
{3}
50 км 9/9 1000 м
[]
+6.9 +5.2 89 +5 +5 тепло 1001.8 998.8 +5.3 +7.9
В 3-4
{4}
50 км 10/1 1000 м
[]
+6.9 +5.5 91 +4 +4 по сезону 1001.6 998.7
В 3-4
{4}
50 км 9/9 1000 м
[]
+7.2 +5.7 90 +4 +4 по сезону 1001.5 998.5
В 3-4
{5}
50 км 9/9 1000 м
[]
+7.2 +6.0 92 +4 +4 по сезону 1001.2 998.3
В 3-4
{5}
28 км слаб. ливневой дождь 10/10 1000 м
[]
+7.3 +6.6 95 +4 +4 по сезону 1000.9 998.0
В 3-5
{5}
24 км слаб. дождь 9/9 100 м
[]
+7.4 +7.2 99 +4 +4 по сезону 1000.6 997.7
В 3-4
{5}
35 км в посл. час снег {ливн. осадки, дождь} 9/9 1000 м
[]
+7.3 +7.1 99 +4 +4 по сезону 1000.4 997.4
В 3-5
{5}
19 км 9/9 600 м
[]
+7.3 +7.2 99 +4 +4 по сезону 1000.1 997.1
В 3-4
{5}
14 км 9/0 1500 м
[]
+7.7 +7.6 99 +5 +5 тепло 999.7 996.8
В 3-4
{4}
5000 м дымка 9/9 50 м
[]
+7.8 +7.7 99 +5 +5 тепло 999.5 996.5
ЮВ 2-3
{4}
30 км 6/4 200 м
[]
+8.3 +8.2 99 +6 +6 тепло 999.3 996.3
Ю 2-2
{3}
20 км 9/1 100 м
[]
+7.7 +7.6 99 +5 +5 тепло 999.1 996.2
Ю 2-3
{3}
18 км 1/0
[]
+7.3 +7.1 99 +5 +5 тепло 999.1 996.2 +6.8 +8.6
ЮВ 1-1
{3}
40 км 6/1 1500 м
[]
+8.7 +8.1 96 +8 +8 тепло 999.2 996.3
Ю 2-3
{4}
50 км 9/9 100 м
[]
+9.0 +8.2 95 +7 +7 тепло 999.4 996.5
Ю 3-4
{4}
50 км 9/9 200 м
[]
+9.5 +8.2 92 +7 +7 тепло 999.5 996.5
Ю 2-2
{3}
25 км слаб. дождь 9/9 200 м
[]
+9.6 +8.5 93 +8 +8 тепло 999.6 996.7
ЮВ 2-3
{3}
40 км в посл. час дождь 9/9 1000 м
[]
+10.1 +8.4 89 +9 +9 тепло 999.4 996.5
Ю 3-4
{4}
50 км в посл. час дождь со снегом {ливн. осадки} 6/0 1000 м
[]
+10.3 +8.4 88 +8 +10 тепло 999.3 996.4
Ю 3-4
{4}
50 км 9/9 300 м
[]
+10.5 +8.9 90 +8 +8 тепло 999.4 996.5
Ю 4-5
{5}
45 км 9/9 200 м
[]
+10.9 +9.4 90 +8 +8 тепло 999.3 996.4
Ю 3-4
{5}
35 км 9/9 1500 м
[]
+10.4 +9.2 92 +8 +8 тепло 999.2 996.3
Ю 3-4
{4}
30 км 1/0
[]
+9.1 +8.4 95 +6 +6 тепло 999.4 996.5
Ю 3-4
{4}
40 км 1/0
[]
+8.3 +7.8 97 +5 +5 тепло 999.5 996.5
Ю 3-3
{4}
23 км 4/0 2000 м
[]
+8.0 +7.7 98 +5 +5 тепло 999.4 996.5 +7.2 +11.1
Ю 3-4
{4}
21 км 1/0
[]
+7.7 +7.6 99 +5 +5 тепло 999.4 996.4
Ю 3-3
{4}
45 км 1/0 200 м
[]
+7.6 +7.3 98 +5 +5 тепло 999.2 996.3
Ю 3-5
{5}
35 км 9/0 1500 м
[]
+8.6 +8.3 98 +6 +6 тепло 998.9 996.0
ЮЗ 4-5
{5}
23 км 9/0 1500 м
[]
+9.1 +8.9 99 +6 +6 тепло 998.8 995.8
ЮЗ 4-5
{6}
28 км 9/9 600 м
[]
+9.4 +9.0 97 +6 +6 тепло 998.8 995.9
ЮЗ 4-5
{6}
19 км ливневой дождь 9/9 300 м
[]
+9.5 +9.1 97 +6 +6 тепло 998.9 996.0
ЮЗ 4-5
{6}
27 км слаб. ливневой дождь 9/9 300 м
[]
+9.3 +8.7 96 +6 +6 тепло 998.8 995.9
ЮЗ 4-5
{7}
28 км слаб. ливневой дождь 9/9 100 м
[]
+9.2 +8.9 98 +6 +6 тепло 998.8 995.9
ЮЗ 4-5
{6}
50 км {ливн. осадки, морось} 4/4 200 м
[]
+8.7 +7.6 93 +5 +5 тепло 998.7 995.8
ЮЗ 4-6
{6}
45 км 9/0 1500 м
[]
+8.7 +8.1 96 +5 +5 тепло 998.7 995.7
Ю 4-6
{6}
45 км 9/9 200 м
[]
+8.7 +8.1 96 +5 +5 тепло 998.5 995.5
Ю 4-7
{7}
45 км {ливн. осадки, морось} 9/9 100 м
[]
+8.9 +8.3 96 +6 +6 тепло 998.3 995.3 +7.6 +9.5
ЮЗ 6-9
{9}
40 км 6/6 200 м
[]
+9.0 +7.8 92 +5 +5 тепло 998.4 995.5
Ю 6-9
{9}
40 км 9/6 300 м
[]
+9.5 +7.9 90 +6 +6 тепло 998.2 995.2
Ю 5-9
{9}
40 км ливневой дождь 9/9 300 м
[]
+10.0 +8.4 90 +7 +7 тепло 997.9 995.0
ЮЗ 6-8
{11}
35 км 9/9 200 м
[]
+10.7 +8.7 87 +7 +8 тепло 997.7 994.8
ЮЗ 7-9
{11}
40 км 9/9 300 м
[]
+10.5 +7.7 83 +7 +7 тепло 997.6 994.7
ЮЗ 6-9
{10}
45 км {ливн. осадки, дождь} 9/9 1000 м
[]
+10.4 +7.8 84 +7 +7 тепло 997.4 994.5
ЮЗ 7-9
{10}
40 км 9/9 600 м
[]
+10.4 +7.4 82 +7 +7 тепло 997.1 994.2
ЮЗ 7-10
{10}
40 км 6/1 1000 м
[]
+10.5 +7.0 79 +7 +7 тепло 996.7 993.8
Ю 5-6
{9}
45 км 1/0 600 м
[]
+9.5 +7.7 89 +6 +6 тепло 996.3 993.4
Ю 3-6
{6}
40 км 4/4
[]
+9.3 +7.6 89 +7 +7 тепло 995.9 993.0
Ю 4-6
{6}
35 км 6/1 1000 м
[]
+9.3 +8.6 95 +6 +6 тепло 995.4 992.5
Ю 5-7
{7}
35 км 9/9 100 м
[]
+9.4 +8.8 96 +6 +6 тепло 994.6 991.7 +8.9 +11.0
Ю 3-5
{7}
25 км 6/6
[]
+9.1 +8.6 97 +6 +6 тепло 993.9 991.0
Ю 4-5
{6}
35 км 9/6 1000 м
[]
+9.3 +8.7 96 +6 +6 тепло 993.3 990.3
Ю 3-5
{6}
50 км 9/9 1000 м
[]
+9.3 +8.9 97 +7 +7 тепло 992.4 989.5
Ю 3-4
{5}
45 км 10/10 100 м
[]
+9.5 +9.0 97 +7 +7 тепло 991.5 988.6
СВ 2-3
{5}
2600 м сильн. дождь 9/9 50 м
[]
+9.5 +9.2 98 +8 +8 тепло 990.5 987.6
Ю 2-3
{4}
6000 м в посл. час дождь со снегом {ливн. осадки} 9/9 100 м
[]
+9.6 +9.5 99 +8 +8 тепло 989.6 986.7
ЮЗ 3-5
{5}
10 км в посл. час морось 9/6 100 м
[]
+9.8 +9.7 99 +7 +7 тепло 988.7 985.8
ЮЗ 5-7
{7}
7000 м дождь 10/10 200 м
[]
+10.0 +9.7 98 +7 +7 тепло 988.4 985.5
З 5-6
{8}
40 км в посл. час дождь со снегом {ливн. осадки} 9/9 300 м
[]
+9.8 +9.4 97 +6 +6 тепло 988.1 985.2
З 6-9
{9}
45 км 10/10 200 м
[]
+9.6 +9.0 96 +6 +6 тепло 988.1 985.2
З 6-9
{9}
40 км в посл. час морось 10/10 200 м
[]
+9.4 +8.7 95 +6 +6 тепло 988.1 985.2
З 8-12
{12}
50 км {ливн. осадки, дождь} 10/10 300 м
[]
+9.3 +7.8 90 +5 +5 тепло 988.6 985.7 +9.0 +10.0
З 7-10
{13}
50 км 6/6 300 м
[]
+9.2 +7.8 91 +5 +5 тепло 989.4 986.5
З 6-9
{11}
45 км 10/10 200 м
[]
+9.4 +8.2 92 +6 +6 тепло 990.5 987.6
З 6-8
{9}
13 км ливневой дождь 9/9 300 м
[]
+8.8 +8.3 97 +5 +5 тепло 991.7 988.8
З 5-8
{9}
40 км 9/9 300 м
[]
+9.7 +8.2 90 +6 +6 тепло 992.4 989.5
З 5-7
{8}
50 км 9/0 1000 м
[]
+9.8 +7.5 86 +7 +7 тепло 993.4 990.5
З 4-6
{7}
50 км {ливн. осадки, дождь} 10/10 600 м
[]
+10.0 +7.0 82 +7 +7 тепло 994.1 991.2
З 5-6
{6}
50 км 10/10 600 м
[]
+10.0 +6.9 81 +7 +7 тепло 994.9 992.0
ЮЗ 4-6
{6}
14 км слаб. дождь 9/9 600 м
[]
+9.6 +7.3 86 +7 +7 тепло 995.2 992.3
ЮЗ 2-3
{6}
50 км в посл. час дождь со снегом {ливн. осадки} 9/9 600 м
[]
+9.2 +7.6 90 +7 +7 тепло 995.5 992.6
Ю 3-4
{4}
50 км 9/0 1000 м
[]
+9.1 +7.9 92 +7 +7 тепло 995.7 992.8
Ю 4-5
{5}
20 км 9/0 1500 м
[]
+9.5 +8.7 95 +6 +6 тепло 995.7 992.7
ЮЗ 5-7
{8}
21 км {ливн. осадки, дождь} 9/0 1500 м
[]
+10.0 +9.2 95 +7 +7 тепло 995.8 992.9 +8.7 +10.2
ЮЗ 4-5
{8}
35 км в посл. час дождь 9/9 600 м
[]
+9.7 +8.4 92 +7 +7 тепло 995.8 992.9
Ю 5-7
{7}
30 км в посл. час дождь 6/6 1000 м
[]
+9.5 +8.8 95 +6 +6 тепло 995.8 992.8
ЮЗ 6-9
{9}
35 км {ливн. осадки, дождь} 10/10 1000 м
[]
+10.4 +8.5 88 +7 +7 тепло 995.9 993.0
ЮЗ 6-8
{9}
40 км слаб. ливневой дождь 9/9 600 м
[]
+10.4 +8.6 89 +7 +7 тепло 996.1 993.2
З 6-8
{10}
23 км слаб. ливневой дождь 10/10 300 м
[]
+10.2 +8.9 92 +7 +7 тепло 996.6 993.7
ЮЗ 5-8
{9}
35 км {ливн. осадки, дождь} 10/10 300 м
[]
+10.1 +9.0 93 +7 +7 тепло 996.9 994.0
ЮЗ 5-7
{9}
30 км в посл. час дождь 9/9 300 м
[]
+10.0 +9.2 95 +7 +7 тепло 997.1 994.2
З 6-9
{9}
35 км 9/9 300 м
[]
+10.0 +9.0 93 +6 +6 тепло 997.5 994.6
З 4-6
{8}
8000 м ливневой дождь 9/9 200 м
[]
+9.8 +8.9 94 +7 +7 тепло 998.3 995.4
З 5-7
{8}
40 км в посл. час дождь 10/10 600 м
[]
+9.5 +8.9 96 +6 +6 тепло 998.7 995.8
СЗ 7-10
{10}
35 км слаб. ливневой дождь 9/9 200 м
[]
+8.9 +8.2 95 +5 +5 тепло 999.8 996.9
З 6-9
{11}
50 км {ливн. осадки, дождь} 1/0 300 м
[]
+8.5 +7.3 92 +4 +4 по сезону 1000.9 997.9 +8.4 +10.5
З 7-10
{10}
50 км 6/6 300 м
[]
+8.2 +6.7 90 +4 +4 по сезону 1002.1 999.2
З 8-11
{12}
50 км 1/0 300 м
[]
+8.2 +5.4 82 +4 +4 по сезону 1003.5 1000.5
З 8-12
{12}
50 км 4/4 300 м
[]
+8.7 +4.9 77 +4 +4 по сезону 1004.7 1001.8
З 7-10
{12}
50 км 4/4 300 м
[]
+8.5 +5.1 79 +4 +5 по сезону 1005.9 1002.9
СЗ 7-9
{11}
50 км 1/0 300 м
[]
+9.0 +5.4 78 +5 +6 тепло 1006.7 1003.8
СЗ 6-9
{11}
50 км ясно +8.7 +4.3 74 +5 +6 тепло 1007.8 1004.8
СЗ 6-8
{9}
50 км ясно +8.7 +5.0 78 +5 +5 тепло 1008.5 1005.6
СЗ 6-8
{9}
50 км 1/0 300 м
[]
+8.2 +4.7 79 +4 +4 по сезону 1009.3 1006.3
СЗ 5-7
{8}
50 км ясно +7.7 +4.8 82 +4 +4 по сезону 1010.2 1007.2
СЗ 4-5
{7}
50 км ясно +6.9 +4.5 85 +3 +3 по сезону 1010.6 1007.6
СЗ 3-4
{6}
50 км ясно +6.8 +4.1 83 +4 +4 по сезону 1011.0 1008.0
З 2-3
{4}
50 км ясно +6.9 +4.5 85 +5 +5 тепло 1011.5 1008.5 +6.5 +9.1
Ю 1-1
{2}
50 км 1/0
[]
+6.2 +4.5 89 +5 +5 тепло 1011.8 1008.8
ЮВ 1-2
{2}
50 км ясно +6.2 +3.7 84 +5 +5 тепло 1011.6 1008.6
ЮВ 3-3
{3}
50 км ясно +6.1 +4.3 88 +3 +3 по сезону 1011.9 1008.9
В 3-3
{4}
50 км ясно +6.0 +4.6 91 +3 +3 по сезону 1011.5 1008.5
В 4-5
{5}
50 км 6/1 300 м
[]
+5.8 +4.9 94 +2 +2 по сезону 1010.4 1007.4
В 4-6
{6}
50 км 9/9 300 м
[]
+7.0 +6.5 97 +3 +3 по сезону 1009.6 1006.6
В 4-5
{7}
50 км 9/1 1000 м
[]
+7.2 +6.5 95 +4 +4 по сезону 1009.2 1006.2
В 5-8
{8}
50 км 10/6 300 м
[]
+7.9 +7.1 95 +4 +4 по сезону 1007.9 1004.9
В 5-9
{9}
13 км слаб. дождь {морось} 9/9 200 м
[]
+8.2 +7.6 96 +4 +4 по сезону 1006.4 1003.5
В 5-8
{9}
23 км слаб. дождь 9/9 100 м
[]
+8.1 +7.8 98 +4 +4 по сезону 1005.8 1002.9
В 5-8
{8}
19 км слаб. дождь 9/9 100 м
[]
+7.9 +7.6 98 +4 +4 по сезону 1005.0 1002.0
В 3-5
{8}
7000 м дождь {морось} 9/9 50 м
[]
+7.6 +7.4 99 +5 +5 тепло 1004.9 1001.9 +4.9 +8.2
В 4-7
{7}
22 км слаб. дождь 10/10 50 м
[]
+7.6 +7.4 99 +4 +4 по сезону 1004.2 1001.3
СВ 6-9
{9}
19 км слаб. дождь 9/9 50 м
[]
+7.5 +7.4 99 +3 +3 по сезону 1004.2 1001.2
СВ 5-9
{9}
30 км слаб. дождь 9/9 50 м
[]
+7.5 +7.3 99 +3 +3 по сезону 1004.9 1001.9
СВ 6-9
{10}
35 км слаб. дождь 9/6 100 м
[]
+7.5 +7.1 97 +3 +3 по сезону 1005.0 1002.0
СВ 6-8
{9}
50 км в посл. час морось 9/9 100 м
[]
+7.7 +7.0 95 +3 +3 по сезону 1005.6 1002.7
СВ 5-8
{10}
50 км {дождь} 9/9 200 м
[]
+7.7 +6.3 91 +4 +4 по сезону 1006.5 1003.5
СВ 4-7
{9}
50 км 4/4 200 м
[]
+8.0 +6.1 88 +5 +5 тепло 1007.7 1004.7
СВ 4-7
{7}
50 км 6/6 300 м
[]
+7.6 +5.5 87 +4 +4 по сезону 1009.7 1006.7
С 4-6
{6}
50 км 9/9 300 м
[]
+7.6 +5.6 87 +4 +4 по сезону 1011.4 1008.4
СВ 4-7
{7}
50 км 9/0 300 м
[]
+7.3 +4.5 82 +4 +4 по сезону 1012.4 1009.4
СВ 2-3
{7}
50 км 10/0 600 м
[]
+7.0 +4.3 83 +5 +5 тепло 1014.1 1011.1
В 3-5
{5}
50 км 10/10 600 м
[]
+6.8 +4.6 86 +4 +4 по сезону 1014.9 1011.9 +6.8 +8.1
СВ 2-3
{5}
50 км 6/0 600 м
[]
+6.1 +3.7 85 +4 +4 по сезону 1015.8 1012.8
В 3-3
{3}
50 км ясно +5.5 +3.4 86 +2 +2 по сезону 1016.5 1013.5
В 2-2
{3}
50 км ясно +5.8 +3.1 83 +3 +3 по сезону 1017.2 1014.2
В 1-1
{2}
50 км ясно +6.2 +2.8 79 +5 +5 тепло 1018.3 1015.3
ЮВ 2-2
{2}
50 км ясно +5.4 +2.7 83 +3 +3 по сезону 1018.7 1015.7
штиль 0-1
{2}
50 км ясно +5.7 +3.2 84 +5 +5 тепло 1019.4 1016.3
ЮВ 2-2
{2}
50 км ясно +5.5 +3.1 85 +3 +3 по сезону 1019.9 1016.9
ЮВ 1-2
{2}
50 км 4/0 600 м
[]
+5.4 +3.3 86 +4 +4 по сезону 1020.1 1017.0
ЮВ 3-3
{3}
50 км ясно +5.4 +3.6 88 +2 +2 по сезону 1020.2 1017.2
ЮВ 3-4
{4}
50 км 6/0
[]
+5.1 +3.5 89 +2 +2 по сезону 1020.8 1017.7
ЮВ 4-5
{5}
50 км 9/0
[]
+5.2 +3.3 88 +1 +1 по сезону 1020.5 1017.5
ЮВ 4-5
{5}
50 км 9/9 300 м
[]
+5.5 +3.6 88 +1 +1 по сезону 1020.8 1017.8 +4.8 +6.8
ЮВ 4-6
{6}
50 км 6/0
[]
+6.5 +4.0 84 +3 +3 по сезону 1021.1 1018.1
ЮВ 5-7
{7}
50 км 1/0
[]
+8.2 +4.7 79 +5 +5 тепло 1021.1 1018.1
ЮВ 4-6
{7}
50 км 9/0
[]
+8.5 +4.8 78 +5 +6 тепло 1021.0 1018.0
ЮВ 5-8
{8}
50 км 9/4 600 м
[]
+8.7 +5.1 78 +5 +6 тепло 1020.9 1017.9
ЮВ 5-8
{8}
50 км 9/9 300 м
[]
+8.4 +5.0 79 +5 +5 тепло 1020.6 1017.6
ЮВ 4-6
{9}
50 км 9/9 600 м
[]
+8.1 +4.9 80 +5 +5 тепло 1020.7 1017.7
ЮВ 3-6
{7}
50 км 9/9 600 м
[]
+8.0 +4.7 80 +5 +5 тепло 1020.9 1017.9
ЮВ 5-7
{7}
50 км 9/1 300 м
[]
+7.8 +4.2 78 +4 +4 по сезону 1020.0 1017.0
В 5-8
{9}
50 км ливневой дождь 9/9 600 м
[]
+7.3 +4.7 84 +3 +3 по сезону 1019.8 1016.8
В 6-9
{9}
50 км слаб. ливневой дождь 9/9 300 м
[]
+7.0 +4.5 84 +3 +3 по сезону 1019.5 1016.5
В 6-11
{11}
50 км слаб. ливневой дождь 9/9 300 м
[]
+6.7 +4.7 87 +2 +2 по сезону 1018.7 1015.7
В 7-11
{12}
50 км ливневой дождь 9/9 1500 м
[]
+6.6 +4.3 85 +2 +2 по сезону 1018.3 1015.3 +5.5 +8.8
В 7-11
{11}
50 км слаб. дождь 9/6 300 м
[]
+6.4 +5.1 91 +1 +1 по сезону 1017.6 1014.6
В 7-10
{12}
45 км слаб. дождь 9/6 200 м
[]
+6.3 +5.7 96 +1 +1 по сезону 1017.0 1014.0
В 7-10
{10}
30 км ливневой дождь 9/9 300 м
[]
+6.5 +5.9 96 +1 +1 по сезону 1016.2 1013.2
В 6-9
{10}
50 км слаб. дождь 9/9 300 м
[]
+6.6 +6.0 96 +2 +2 по сезону 1015.9 1012.9
ЮВ 6-11
{11}
50 км 9/9 300 м
[]
+7.4 +6.3 93 +3 +3 по сезону 1015.3 1012.3
В 7-11
{14}
45 км {ливн. осадки, дождь} 9/9 300 м
[]
+7.5 +6.0 90 +3 +3 по сезону 1014.6 1011.6
В 7-12
{13}
16 км 9/9 200 м
[]
+7.6 +6.5 93 +3 +3 по сезону 1013.6 1010.7
В 7-11
{11}
9000 м дымка 9/9 200 м
[]
+7.6 +6.8 95 +3 +3 по сезону 1012.9 1009.9
В 6-10
{11}
7000 м дымка 9/9 100 м
[]
+7.1 +6.7 97 +2 +2 по сезону 1012.2 1009.2
В 6-9
{10}
17 км 9/9 100 м
[]
+7.4 +6.7 95 +3 +3 по сезону 1011.6 1008.6
В 4-7
{9}
9000 м дымка 9/9 100 м
[]
+7.4 +6.9 97 +4 +4 по сезону 1011.4 1008.4
В 4-6
{7}
4000 м слаб. дождь {морось} 9/9 100 м
[]
+7.3 +7.1 99 +4 +4 по сезону 1011.4 1008.4 +6.2 +7.7
В 3-4
{6}
2900 м морось 9/9 50 м
[]
+7.4 +7.2 99 +4 +4 по сезону 1011.3 1008.3
В 4-6
{6}
3300 м слаб. дождь 9/9 <50 м
[]
+7.3 +7.2 99 +4 +4 по сезону 1011.0 1008.0
В 4-6
{7}
8000 м в посл. час дождь {морось} 9/9 100 м
[]
+7.5 +7.3 99 +4 +4 по сезону 1010.6 1007.6
СВ 4-7
{8}
5000 м дымка 9/9 50 м
[]
+7.1 +6.9 99 +3 +3 по сезону 1010.0 1007.0
В 5-9
{9}
11 км 9/0 50 м
[]
+6.9 +6.8 99 +3 +3 по сезону 1009.4 1006.4
Местоположение метеостанции Кумлинге (Финляндия): широта 60.26 долгота 20.75 высота над уровнем моря 23 м.
В архиве по умолчанию представлена погода в Кумлинге за последнюю неделю. Архивные данные за месяц целиком и за предыдущие месяцы, начиная с января 2011 года, Вы можете получить, выбрав интересующий диапазон дат из раскрывающегося списка и нажав кнопку "Найти!".
*Определитесь, кто Вы:
Внимание! Время в таблицах - всемирное. Для получения местного времени необходимо прибавить поправку, которая равна 1 ч.
Смотрите также архив погоды в соседних городах и на ближайших метеорологических станциях:
Партнеры нашего сайта:      
Пояснения к столбцам:
  • Ветер - указаны скорость ветра в м/с - средняя за 10 мин, порывы в срок и между сроками (в фигурных скобках) и направление, откуда дует ветер: С - северный,
  • СВ - северо-восточный, В - восточный, ЮВ - юго-восточный, Ю - южный, ЮЗ - юго-западный, З - западный, СЗ - северо-западный.
  • Видимость - горизонтальная дальность видимости в метрах или километрах. При видимости от 1 до 10 км при отсутствии осадков обычно наблюдается дымка, при ухудшении видимости до 1 км и менее - туман. В сухую погоду видимость может ухудшаться дымом, пылью или мглою.
  • Явления - указаны атмосферные явления, наблюдавшиеся в срок или в последний час перед сроком; фигурными скобками обозначены явления, наблюдавшиеся между сроками (за 1-3 часа до срока); квадратными скобками обозначены град или гололедные отложения с указанием их диаметра в мм.
  • Облачность - указаны через наклонную черту общая и нижняя облачность в баллах и высота нижней границы облаков в метрах; квадратными скобками обозначены формы облаков: Ci - перистые, Cs - перисто-слоистые, Cc - перисто-кучевые, Ac - высококучевые, As - высокослоистые, Sc - слоисто-кучевые, Ns - слоисто-дождевые, Cu - кучевые, Cb - кучево-дождевые. Подробнее классификацию облаков см. в Атласе облаков (PDF).
  • T - Температура воздуха - температура, измеренная на высоте 2 м над землей.
  • Td - Температура точки росы - температура, при понижении до которой содержащийся в воздухе водяной пар достигнет насыщения.
  • f - Относительная влажность воздуха - влажноcть воздуха, измеренная на высоте 2 м над землей.
  • Te - Эффективная температура - температура, которую ощущает одетый по сезону человек в тени. Характеристика душности погоды. При расчете учитывается влияние влажности воздуха и скорости ветра на теплоощущения человека.
  • Tes - Эффективная температура на солнце - температура, которую ощущает человек, с поправкой на солнечный нагрев. Характеристика знойности погоды. Зависит от высоты солнца над горизонтом, облачности и скорости ветра. Ночью, в пасмурную погоду, а также при ветре 12 м/с и более поправка равна нулю.
  • P - Атмосферное давление - приведенное к уровню моря атмосферное давление.
  • Po - Атмосферное давление - измеренное на уровне метеостанции атмосферное давление.
  • Tmin - Минимальная температура - минимум температуры воздуха на высоте 2 м над землей.
  • Tmax - Максимальная температура - максимум температуры воздуха на высоте 2 м над землей.
  • R - Количество осадков - Количество выпавших осадков за период времени, мм. При наведении курсора мыши на число - период времени, за который выпало указанное количество осадков.
  • R24 - Количество осадков - Количество выпавших осадков за 24 часа, мм.
  • S - Снежный покров - Высота снежного покрова, см. При наведении курсора мыши на число - состояние снежного покрова и степень покрытия местности в баллах.